Location: Newark
(55.7681°N, 37.7103°E)
Time: 20:48:22
(UTC+00:00)

XW-2C - Visible Passes

Search period start: 13 December 2019 00:00
Search period end: 23 December 2019 00:00
Orbit: 509 x 528 km, 97.5° (Epoch: 13 December)

Date Brightness Start Highest point End Pass type
(mag) Time Alt. Az. Time Alt. Az. Time Alt. Az.
13 Dec ? 02:56:02 10° NNE 02:59:24 28° E 03:02:45 10° SSE visible
13 Dec ? 04:30:01 10° N 04:33:36 37° WNW 04:37:10 10° SW visible
13 Dec ? 13:43:34 10° SE 13:47:08 40° ENE 13:50:44 10° N visible
13 Dec ? 15:18:10 10° SSW 15:21:23 26° W 15:24:38 10° NW visible
14 Dec ? 02:42:15 10° NE 02:45:16 21° E 02:48:16 10° SE visible
14 Dec ? 04:15:54 10° N 04:19:39 50° WNW 04:23:22 10° SW visible
14 Dec ? 15:03:47 10° SSW 15:07:16 34° W 15:10:49 10° NNW visible
15 Dec ? 02:28:37 10° NE 02:31:06 16° E 02:33:36 10° SE visible
15 Dec ? 04:01:50 10° N 04:05:40 68° WNW 04:09:28 10° SSW visible
15 Dec ? 14:49:31 10° S 14:53:11 47° W 14:56:54 10° NNW visible
16 Dec ? 02:15:16 10° ENE 02:16:56 12° E 02:18:34 10° ESE visible
16 Dec ? 03:47:46 10° NNE 03:51:40 88° ESE 03:55:30 10° SSW visible
16 Dec ? 14:35:21 10° S 14:39:07 65° WSW 14:42:57 10° NNW visible
17 Dec ? 03:33:46 10° NNE 03:37:37 65° ESE 03:41:26 10° S visible
17 Dec ? 14:21:16 10° SSE 14:25:05 88° WSW 14:28:57 10° NNW visible
17 Dec ? 15:58:15 10° WSW 15:59:49 12° W 16:01:25 10° WNW visible
18 Dec ? 03:19:49 10° NNE 03:23:33 47° E 03:27:16 10° S visible
18 Dec ? 04:54:19 10° N 04:57:28 24° WNW 05:00:36 10° WSW visible
18 Dec ? 14:07:17 10° SSE 14:11:04 68° ENE 14:14:54 10° N visible
18 Dec ? 15:43:11 10° SW 15:45:37 16° W 15:48:05 10° NW visible
19 Dec ? 03:05:54 10° NNE 03:09:28 35° E 03:13:00 10° SSE visible
19 Dec ? 04:40:07 10° N 04:43:32 31° WNW 04:46:57 10° SW visible
19 Dec ? 13:53:23 10° SE 13:57:05 50° ENE 14:00:49 10° N visible
19 Dec ? 15:28:29 10° SW 15:31:28 21° W 15:34:28 10° NW visible
20 Dec ? 02:52:03 10° NE 02:55:21 26° E 02:58:37 10° SSE visible
20 Dec ? 04:25:58 10° N 04:29:36 40° WNW 04:33:12 10° SW visible
20 Dec ? 13:39:35 10° SE 13:43:07 37° ENE 13:46:41 10° N visible
20 Dec ? 15:13:59 10° SSW 15:17:19 28° W 15:20:41 10° NNW visible
21 Dec ? 02:38:19 10° NE 02:41:12 20° E 02:44:04 10° SE visible
21 Dec ? 04:11:51 10° N 04:15:37 54° WNW 04:19:23 10° SSW visible
21 Dec ? 14:59:38 10° SSW 15:03:12 38° W 15:06:50 10° NNW visible
22 Dec ? 02:24:44 10° NE 02:27:02 15° E 02:29:18 10° SE visible
22 Dec ? 03:57:46 10° NNE 04:01:38 74° WNW 04:05:27 10° SSW visible
22 Dec ? 14:45:23 10° S 14:49:07 51° W 14:52:54 10° NNW visible
